| time (UTC) | temp F | wind direction | speed MPH | gust MPH | rain 1hr in | rain 24hr in | rain mn in | humidity % | barometer mb |
| 20260906172118 | 73 | 45 | 12.0 | 17.0 | 0.00 | 0.00 | 0.00 | 54 | 999.3 |
| 20260906171638 | 73 | 45 | 10.0 | 14.0 | 0.00 | 0.00 | 0.00 | 54 | 999.3 |
| 20260906171118 | 73 | 45 | 12.0 | 17.0 | 0.00 | 0.00 | 0.00 | 53 | 999.3 |
| 20260906170618 | 73 | 45 | 13.0 | 16.0 | 0.00 | 0.00 | 0.00 | 54 | 999.3 |
| 20260906170118 | 73 | 45 | 17.0 | 19.0 | 0.00 | 0.00 | 0.00 | 53 | 999.3 |
| 20260906165617 | 74 | 45 | 15.0 | 17.0 | 0.00 | 0.00 | 0.00 | 54 | 999.3 |
| 20260906165117 | 74 | 45 | 15.0 | 17.0 | 0.00 | 0.00 | 0.00 | 52 | 999.3 |
| 20260906164658 | 74 | 68 | 13.0 | 16.0 | 0.00 | 0.00 | 0.00 | 51 | 999.3 |
| 20260906164117 | 74 | 45 | 12.0 | 16.0 | 0.00 | 0.00 | 0.00 | 51 | 999.2 |
| 20260906163618 | 74 | 45 | 8.0 | 11.0 | 0.00 | 0.00 | 0.00 | 50 | 999.1 |
| 20260906163138 | 74 | 68 | 11.0 | 13.0 | 0.00 | 0.00 | 0.00 | 51 | 999.1 |
| 20260906162618 | 74 | 68 | 10.0 | 12.0 | 0.00 | 0.00 | 0.00 | 51 | 999.0 |
| 20260906162117 | 73 | 68 | 14.0 | 18.0 | 0.00 | 0.00 | 0.00 | 51 | 999.1 |
| 20260906161617 | 73 | 68 | 10.0 | 12.0 | 0.00 | 0.00 | 0.00 | 52 | 999.2 |
| 20260906161117 | 73 | 68 | 13.0 | 16.0 | 0.00 | 0.00 | 0.00 | 51 | 999.1 |
| 20260906160619 | 73 | 68 | 11.0 | 14.0 | 0.00 | 0.00 | 0.00 | 52 | 999.1 |
| 20260906160117 | 73 | 68 | 11.0 | 13.0 | 0.00 | 0.00 | 0.00 | 52 | 999.1 |
| 20260906155638 | 73 | 90 | 9.0 | 13.0 | 0.00 | 0.00 | 0.00 | 51 | 999.2 |
| 20260906155117 | 73 | 68 | 8.0 | 11.0 | 0.00 | 0.00 | 0.00 | 50 | 999.2 |
| 20260906154618 | 74 | 68 | 9.0 | 10.0 | 0.00 | 0.00 | 0.00 | 50 | 999.1 |
| 20260906154118 | 74 | 90 | 12.0 | 15.0 | 0.00 | 0.00 | 0.00 | 51 | 999.2 |
| 20260906153617 | 74 | 68 | 12.0 | 16.0 | 0.00 | 0.00 | 0.00 | 48 | 999.1 |
| 20260906153119 | 74 | 68 | 13.0 | 14.0 | 0.00 | 0.00 | 0.00 | 47 | 999.0 |
| 20260906152617 | 74 | 68 | 12.0 | 16.0 | 0.00 | 0.00 | 0.00 | 48 | 999.0 |
| 20260906152119 | 74 | 0 | 10.0 | 14.0 | 0.00 | 0.00 | 0.00 | 48 | 999.0 |
| 20260906151620 | 74 | 0 | 14.0 | 17.0 | 0.00 | 0.00 | 0.00 | 48 | 998.9 |
| 20260906151137 | 74 | 0 | 12.0 | 15.0 | 0.00 | 0.00 | 0.00 | 49 | 999.0 |
| 20260906150620 | 74 | 0 | 14.0 | 16.0 | 0.00 | 0.00 | 0.00 | 48 | 998.9 |
| 20260906150120 | 74 | 0 | 12.0 | 14.0 | 0.00 | 0.00 | 0.00 | 50 | 998.9 |
| 20260906145620 | 73 | 0 | 15.0 | 17.0 | 0.00 | 0.00 | 0.00 | 49 | 998.9 |
| 20260906145117 | 73 | 0 | 12.0 | 15.0 | 0.00 | 0.00 | 0.00 | 49 | 998.9 |
| 20260906144619 | 73 | 0 | 10.0 | 12.0 | 0.00 | 0.00 | 0.00 | 50 | 998.9 |
| 20260906144120 | 73 | 0 | 11.0 | 13.0 | 0.00 | 0.00 | 0.00 | 51 | 998.8 |
| 20260906143620 | 73 | 0 | 8.0 | 10.0 | 0.00 | 0.00 | 0.00 | 51 | 998.8 |
| 20260906143119 | 72 | 0 | 6.0 | 8.0 | 0.00 | 0.00 | 0.00 | 52 | 998.7 |
| 20260906142617 | 72 | 0 | 6.0 | 8.0 | 0.00 | 0.00 | 0.00 | 51 | 998.7 |
| 20260906142117 | 71 | 0 | 10.0 | 13.0 | 0.00 | 0.00 | 0.00 | 51 | 998.7 |
| 20260906141617 | 71 | 0 | 8.0 | 10.0 | 0.00 | 0.00 | 0.00 | 50 | 998.6 |
| 20260906141117 | 71 | 45 | 10.0 | 14.0 | 0.00 | 0.00 | 0.00 | 50 | 998.5 |
| 20260906140617 | 71 | 0 | 13.0 | 16.0 | 0.00 | 0.00 | 0.00 | 51 | 998.4 |
| 20260906140118 | 71 | 0 | 12.0 | 15.0 | 0.00 | 0.00 | 0.00 | 51 | 998.5 |
| 20260906135618 | 71 | 0 | 13.0 | 17.0 | 0.00 | 0.00 | 0.00 | 52 | 998.5 |
| 20260906135118 | 71 | 0 | 13.0 | 17.0 | 0.00 | 0.00 | 0.00 | 52 | 998.5 |
| 20260906134658 | 71 | 0 | 11.0 | 13.0 | 0.00 | 0.00 | 0.00 | 52 | 998.5 |
| 20260906134117 | 71 | 0 | 14.0 | 16.0 | 0.00 | 0.00 | 0.00 | 52 | 998.5 |
| 20260906133637 | 71 | 0 | 13.0 | 15.0 | 0.00 | 0.00 | 0.00 | 52 | 998.3 |
| 20260906133117 | 71 | 0 | 13.0 | 16.0 | 0.00 | 0.00 | 0.00 | 53 | 998.4 |
| 20260906132618 | 71 | 0 | 13.0 | 16.0 | 0.00 | 0.00 | 0.00 | 53 | 998.4 |
| 20260906132117 | 71 | 0 | 13.0 | 17.0 | 0.00 | 0.00 | 0.00 | 53 | 998.4 |
| 20260906131618 | 71 | 0 | 14.0 | 15.0 | 0.00 | 0.00 | 0.00 | 53 | 998.4 |
| 20260906131117 | 71 | 0 | 15.0 | 17.0 | 0.00 | 0.00 | 0.00 | 54 | 998.4 |
| 20260906130618 | 71 | 0 | 15.0 | 17.0 | 0.00 | 0.00 | 0.00 | 54 | 998.4 |
| 20260906130137 | 71 | 0 | 15.0 | 18.0 | 0.00 | 0.00 | 0.00 | 54 | 998.4 |
| 20260906125618 | 71 | 0 | 15.0 | 17.0 | 0.00 | 0.00 | 0.00 | 54 | 998.4 |
| 20260906125137 | 71 | 0 | 12.0 | 14.0 | 0.00 | 0.00 | 0.00 | 55 | 998.4 |
| 20260906124617 | 72 | 0 | 14.0 | 18.0 | 0.00 | 0.00 | 0.00 | 55 | 998.3 |
| 20260906124137 | 72 | 0 | 10.0 | 12.0 | 0.00 | 0.00 | 0.00 | 57 | 998.3 |
| 20260906123617 | 71 | 23 | 9.0 | 11.0 | 0.00 | 0.00 | 0.00 | 56 | 998.2 |
| 20260906123117 | 72 | 23 | 7.0 | 9.0 | 0.00 | 0.00 | 0.00 | 56 | 998.2 |
| 20260906122719 | 71 | 23 | 7.0 | 9.0 | 0.00 | 0.00 | 0.00 | 56 | 998.2 |
| 20260906122120 | 71 | 0 | 10.0 | 12.0 | 0.00 | 0.00 | 0.00 | 56 | 998.0 |
| 20260906121639 | 71 | 23 | 5.0 | 8.0 | 0.00 | 0.00 | 0.00 | 56 | 998.1 |
| 20260906121117 | 71 | 23 | 7.0 | 10.0 | 0.00 | 0.00 | 0.00 | 57 | 998.0 |
| 20260906120617 | 71 | 45 | 4.0 | 8.0 | 0.00 | 0.00 | 0.00 | 56 | 998.2 |
| 20260906120121 | 71 | 23 | 5.0 | 9.0 | 0.00 | 0.00 | 0.00 | 56 | 998.1 |
| 20260906115617 | 71 | 23 | 7.0 | 10.0 | 0.00 | 0.00 | 0.00 | 56 | 997.9 |
| 20260906115117 | 71 | 68 | 6.0 | 9.0 | 0.00 | 0.00 | 0.00 | 56 | 997.9 |
| 20260906114619 | 71 | 23 | 6.0 | 9.0 | 0.00 | 0.00 | 0.00 | 56 | 997.8 |
| 20260906114120 | 71 | 23 | 6.0 | 8.0 | 0.00 | 0.00 | 0.00 | 56 | 997.8 |
| 20260906113619 | 71 | 45 | 5.0 | 8.0 | 0.00 | 0.00 | 0.00 | 55 | 997.7 |
| 20260906113119 | 71 | 23 | 7.0 | 9.0 | 0.00 | 0.00 | 0.00 | 55 | 997.7 |
| 20260906112620 | 71 | 45 | 6.0 | 8.0 | 0.00 | 0.00 | 0.00 | 54 | 997.7 |
| 20260906112119 | 71 | 45 | 5.0 | 10.0 | 0.00 | 0.00 | 0.00 | 54 | 997.6 |
| 20260906111619 | 71 | 45 | 4.0 | 7.0 | 0.00 | 0.00 | 0.00 | 55 | 997.7 |
| 20260906111116 | 71 | 23 | 5.0 | 8.0 | 0.00 | 0.00 | 0.00 | 55 | 997.6 |
| 20260906110617 | 71 | 45 | 5.0 | 9.0 | 0.00 | 0.00 | 0.00 | 55 | 997.4 |
| 20260906110139 | 71 | 68 | 7.0 | 10.0 | 0.00 | 0.00 | 0.00 | 55 | 997.3 |
| 20260906105617 | 71 | 45 | 4.0 | 6.0 | 0.00 | 0.00 | 0.00 | 55 | 997.3 |
| 20260906105117 | 71 | 23 | 4.0 | 5.0 | 0.00 | 0.00 | 0.00 | 55 | 997.3 |
| 20260906104637 | 71 | 45 | 3.0 | 5.0 | 0.00 | 0.00 | 0.00 | 54 | 997.3 |
| 20260906104117 | 71 | 0 | 6.0 | 9.0 | 0.00 | 0.00 | 0.00 | 55 | 997.3 |
| 20260906103617 | 71 | 0 | 6.0 | 9.0 | 0.00 | 0.00 | 0.00 | 55 | 997.2 |
| 20260906103118 | 71 | 0 | 9.0 | 11.0 | 0.00 | 0.00 | 0.00 | 55 | 997.2 |
| 20260906102617 | 71 | 0 | 6.0 | 8.0 | 0.00 | 0.00 | 0.00 | 55 | 997.2 |
| 20260906102116 | 71 | 23 | 4.0 | 5.0 | 0.00 | 0.00 | 0.00 | 56 | 997.2 |
| 20260906101618 | 71 | 0 | 4.0 | 6.0 | 0.00 | 0.00 | 0.00 | 56 | 997.3 |
| 20260906101116 | 71 | 0 | 8.0 | 10.0 | 0.00 | 0.00 | 0.00 | 56 | 997.2 |
| 20260906100617 | 71 | 0 | 5.0 | 9.0 | 0.00 | 0.00 | 0.00 | 56 | 997.3 |
| 20260906100116 | 71 | 45 | 3.0 | 4.0 | 0.00 | 0.00 | 0.00 | 56 | 997.2 |
| 20260906095657 | 71 | 0 | 7.0 | 9.0 | 0.00 | 0.00 | 0.00 | 56 | 997.4 |
| 20260906095117 | 71 | 0 | 4.0 | 8.0 | 0.00 | 0.00 | 0.00 | 56 | 997.4 |
| 20260906094617 | 71 | 0 | 4.0 | 5.0 | 0.00 | 0.00 | 0.00 | 56 | 997.3 |
| 20260906094116 | 70 | 0 | 6.0 | 8.0 | 0.00 | 0.00 | 0.00 | 56 | 997.3 |
| 20260906093617 | 70 | 45 | 3.0 | 5.0 | 0.00 | 0.00 | 0.00 | 56 | 997.3 |
| 20260906093117 | 70 | 23 | 1.0 | 3.0 | 0.00 | 0.00 | 0.00 | 57 | 997.1 |
| 20260906092616 | 70 | 0 | 2.0 | 3.0 | 0.00 | 0.00 | 0.00 | 56 | 997.0 |
| 20260906092117 | 71 | 45 | 1.0 | 2.0 | 0.00 | 0.00 | 0.00 | 56 | 997.1 |
| 20260906091617 | 71 | 0.0 | 1.0 | 0.00 | 0.00 | 0.00 | 56 | 997.2 | |
| 20260906091116 | 71 | 0 | 3.0 | 4.0 | 0.00 | 0.00 | 0.00 | 56 | 997.3 |
| 20260906090637 | 71 | 23 | 4.0 | 5.0 | 0.00 | 0.00 | 0.00 | 56 | 997.3 |
| 20260906090116 | 70 | 0.0 | 2.0 | 0.00 | 0.00 | 0.00 | 56 | 997.2 | |
| 20260906085617 | 71 | 23 | 3.0 | 4.0 | 0.00 | 0.00 | 0.00 | 56 | 997.2 |
| 20260906085116 | 71 | 23 | 4.0 | 5.0 | 0.00 | 0.00 | 0.00 | 56 | 997.1 |
| 20260906084617 | 71 | 0 | 3.0 | 4.0 | 0.00 | 0.00 | 0.00 | 56 | 997.1 |
| 20260906084117 | 71 | 23 | 4.0 | 5.0 | 0.00 | 0.00 | 0.00 | 56 | 997.1 |
| 20260906083617 | 71 | 0 | 5.0 | 6.0 | 0.00 | 0.00 | 0.00 | 56 | 997.0 |
| 20260906083117 | 71 | 45 | 2.0 | 4.0 | 0.00 | 0.00 | 0.00 | 56 | 997.1 |
| 20260906082617 | 71 | 23 | 4.0 | 6.0 | 0.00 | 0.00 | 0.00 | 56 | 997.1 |
| 20260906082116 | 71 | 45 | 2.0 | 4.0 | 0.00 | 0.00 | 0.00 | 56 | 997.0 |
| 20260906081617 | 71 | 0 | 3.0 | 5.0 | 0.00 | 0.00 | 0.00 | 56 | 997.0 |
| 20260906081136 | 71 | 0 | 5.0 | 8.0 | 0.00 | 0.00 | 0.00 | 56 | 996.9 |
| 20260906080656 | 71 | 0 | 6.0 | 9.0 | 0.00 | 0.00 | 0.00 | 55 | 996.9 |
| 20260906080117 | 71 | 45 | 5.0 | 6.0 | 0.00 | 0.00 | 0.00 | 56 | 996.9 |
| 20260906075636 | 71 | 0 | 6.0 | 9.0 | 0.00 | 0.00 | 0.00 | 56 | 996.8 |
| 20260906075117 | 71 | 0 | 7.0 | 9.0 | 0.00 | 0.00 | 0.00 | 56 | 996.7 |
| 20260906074616 | 71 | 0 | 8.0 | 10.0 | 0.00 | 0.00 | 0.00 | 56 | 996.7 |
| 20260906074117 | 71 | 0 | 10.0 | 12.0 | 0.00 | 0.00 | 0.00 | 56 | 996.8 |
| 20260906073618 | 71 | 0 | 5.0 | 8.0 | 0.00 | 0.00 | 0.00 | 56 | 996.8 |
| 20260906073117 | 71 | 45 | 10.0 | 11.0 | 0.00 | 0.00 | 0.00 | 56 | 996.8 |
| 20260906072617 | 71 | 0 | 7.0 | 10.0 | 0.00 | 0.00 | 0.00 | 56 | 996.8 |
| 20260906072116 | 71 | 0 | 10.0 | 12.0 | 0.00 | 0.00 | 0.00 | 56 | 996.7 |
| 20260906071616 | 71 | 45 | 7.0 | 10.0 | 0.00 | 0.00 | 0.00 | 56 | 996.7 |
| 20260906071137 | 71 | 0 | 6.0 | 11.0 | 0.00 | 0.00 | 0.00 | 56 | 996.7 |
| 20260906070616 | 71 | 45 | 8.0 | 11.0 | 0.00 | 0.00 | 0.00 | 56 | 996.6 |
| 20260906070117 | 71 | 0 | 12.0 | 15.0 | 0.00 | 0.00 | 0.00 | 55 | 996.6 |
| 20260906065637 | 71 | 0 | 11.0 | 16.0 | 0.00 | 0.00 | 0.00 | 56 | 996.6 |
| 20260906065116 | 71 | 0 | 10.0 | 13.0 | 0.00 | 0.00 | 0.00 | 55 | 996.5 |
| 20260906064619 | 71 | 0 | 12.0 | 15.0 | 0.00 | 0.00 | 0.00 | 56 | 996.5 |
| 20260906064118 | 71 | 0 | 7.0 | 10.0 | 0.00 | 0.00 | 0.00 | 55 | 996.4 |
| 20260906063618 | 71 | 0 | 8.0 | 13.0 | 0.00 | 0.00 | 0.00 | 55 | 996.4 |
| 20260906063119 | 71 | 0 | 12.0 | 15.0 | 0.00 | 0.00 | 0.00 | 55 | 996.3 |
| 20260906062618 | 71 | 0 | 10.0 | 17.0 | 0.00 | 0.00 | 0.00 | 54 | 996.3 |
| 20260906062118 | 71 | 0 | 9.0 | 11.0 | 0.00 | 0.00 | 0.00 | 55 | 996.3 |
| 20260906061619 | 71 | 45 | 10.0 | 13.0 | 0.00 | 0.00 | 0.00 | 54 | 996.3 |
| 20260906061118 | 71 | 0 | 10.0 | 15.0 | 0.00 | 0.00 | 0.00 | 54 | 996.4 |
| 20260906060619 | 71 | 0 | 9.0 | 13.0 | 0.00 | 0.00 | 0.00 | 55 | 996.4 |
| 20260906060118 | 71 | 0 | 8.0 | 11.0 | 0.00 | 0.00 | 0.00 | 54 | 996.5 |
| 20260906055618 | 71 | 0 | 9.0 | 12.0 | 0.00 | 0.00 | 0.00 | 54 | 996.5 |
| 20260906055120 | 71 | 0 | 7.0 | 11.0 | 0.00 | 0.00 | 0.00 | 54 | 996.6 |
| 20260906054618 | 71 | 0 | 8.0 | 12.0 | 0.00 | 0.00 | 0.00 | 54 | 996.5 |
| 20260906054118 | 71 | 0 | 9.0 | 12.0 | 0.00 | 0.00 | 0.00 | 54 | 996.6 |
| 20260906053618 | 71 | 45 | 7.0 | 10.0 | 0.00 | 0.00 | 0.00 | 53 | 996.5 |
| 20260906053118 | 71 | 45 | 7.0 | 11.0 | 0.00 | 0.00 | 0.00 | 53 | 996.4 |
| 20260906052618 | 71 | 23 | 9.0 | 12.0 | 0.00 | 0.00 | 0.00 | 53 | 996.4 |
| 20260906052118 | 71 | 0 | 8.0 | 10.0 | 0.00 | 0.00 | 0.00 | 52 | 996.4 |
| 20260906051619 | 71 | 45 | 9.0 | 14.0 | 0.00 | 0.00 | 0.00 | 54 | 996.5 |
| 20260906051118 | 71 | 45 | 11.0 | 14.0 | 0.00 | 0.00 | 0.00 | 53 | 996.3 |
| 20260906050618 | 71 | 45 | 10.0 | 12.0 | 0.00 | 0.00 | 0.00 | 54 | 996.3 |
| 20260906050118 | 71 | 0 | 9.0 | 13.0 | 0.00 | 0.00 | 0.00 | 53 | 996.4 |
| 20260906045618 | 71 | 0 | 11.0 | 14.0 | 0.00 | 0.00 | 0.00 | 53 | 996.6 |
| 20260906045118 | 71 | 0 | 8.0 | 11.0 | 0.00 | 0.00 | 0.00 | 53 | 996.6 |
| 20260906044658 | 71 | 0 | 10.0 | 13.0 | 0.00 | 0.00 | 0.00 | 54 | 996.6 |
| 20260906044118 | 71 | 0 | 9.0 | 12.0 | 0.00 | 0.00 | 0.00 | 54 | 996.7 |
| 20260906043618 | 71 | 0 | 12.0 | 16.0 | 0.00 | 0.00 | 0.00 | 53 | 996.6 |
| 20260906043118 | 71 | 45 | 10.0 | 14.0 | 0.00 | 0.00 | 0.00 | 53 | 996.5 |
| 20260906042618 | 71 | 45 | 10.0 | 20.0 | 0.00 | 0.00 | 0.00 | 52 | 996.6 |
| 20260906042138 | 71 | 0 | 14.0 | 17.0 | 0.00 | 0.00 | 0.00 | 52 | 996.5 |
| 20260906041618 | 71 | 0 | 11.0 | 15.0 | 0.00 | 0.00 | 0.00 | 53 | 996.6 |
| 20260906041118 | 71 | 0 | 11.0 | 16.0 | 0.00 | 0.00 | 0.00 | 53 | 996.6 |
| 20260906040618 | 71 | 0 | 12.0 | 16.0 | 0.00 | 0.00 | 0.00 | 52 | 996.5 |
| 20260906040118 | 71 | 0 | 12.0 | 16.0 | 0.00 | 0.00 | 0.00 | 52 | 996.5 |
| 20260906035618 | 72 | 23 | 13.0 | 17.0 | 0.00 | 0.00 | 0.00 | 53 | 996.6 |
| 20260906035118 | 72 | 0 | 11.0 | 18.0 | 0.00 | 0.00 | 0.00 | 52 | 996.5 |
| 20260906034639 | 72 | 23 | 14.0 | 18.0 | 0.00 | 0.00 | 0.00 | 52 | 996.6 |
| 20260906034118 | 72 | 45 | 11.0 | 13.0 | 0.00 | 0.00 | 0.00 | 51 | 996.5 |
| 20260906033638 | 72 | 0 | 15.0 | 18.0 | 0.00 | 0.00 | 0.00 | 51 | 996.5 |
| 20260906033138 | 72 | 45 | 11.0 | 15.0 | 0.00 | 0.00 | 0.00 | 53 | 996.5 |
| 20260906032618 | 73 | 45 | 11.0 | 14.0 | 0.00 | 0.00 | 0.00 | 52 | 996.6 |
| 20260906032118 | 73 | 23 | 15.0 | 18.0 | 0.00 | 0.00 | 0.00 | 51 | 996.5 |
| 20260906031619 | 73 | 0 | 11.0 | 17.0 | 0.00 | 0.00 | 0.00 | 51 | 996.4 |
| 20260906031118 | 73 | 45 | 12.0 | 18.0 | 0.00 | 0.00 | 0.00 | 50 | 996.4 |
| 20260906030618 | 73 | 0 | 12.0 | 16.0 | 0.00 | 0.00 | 0.00 | 51 | 996.4 |
| 20260906030119 | 73 | 23 | 14.0 | 19.0 | 0.00 | 0.00 | 0.00 | 52 | 996.4 |
| 20260906025618 | 73 | 0 | 11.0 | 15.0 | 0.00 | 0.00 | 0.00 | 53 | 996.4 |
| 20260906025118 | 73 | 23 | 16.0 | 19.0 | 0.00 | 0.00 | 0.00 | 53 | 996.4 |
| 20260906024640 | 74 | 0 | 15.0 | 20.0 | 0.00 | 0.00 | 0.00 | 53 | 996.3 |
| 20260906024118 | 74 | 45 | 13.0 | 17.0 | 0.00 | 0.00 | 0.00 | 52 | 996.3 |
| 20260906023618 | 74 | 0 | 13.0 | 15.0 | 0.00 | 0.00 | 0.00 | 49 | 996.2 |
| 20260906023119 | 74 | 68 | 11.0 | 16.0 | 0.00 | 0.00 | 0.00 | 48 | 996.2 |
| 20260906022618 | 74 | 0 | 15.0 | 18.0 | 0.00 | 0.00 | 0.00 | 49 | 996.1 |
| 20260906022118 | 74 | 0 | 14.0 | 17.0 | 0.00 | 0.00 | 0.00 | 49 | 996.1 |
| 20260906021620 | 74 | 0 | 9.0 | 13.0 | 0.00 | 0.00 | 0.00 | 49 | 996.2 |
| 20260906021158 | 74 | 0 | 11.0 | 15.0 | 0.00 | 0.00 | 0.00 | 49 | 996.3 |
| 20260906020620 | 74 | 0 | 8.0 | 11.0 | 0.00 | 0.00 | 0.00 | 46 | 996.1 |
| 20260906020138 | 74 | 23 | 7.0 | 11.0 | 0.00 | 0.00 | 0.00 | 48 | 996.1 |
| 20260906015619 | 74 | 68 | 14.0 | 19.0 | 0.00 | 0.00 | 0.00 | 48 | 996.1 |
| 20260906015119 | 74 | 0 | 13.0 | 16.0 | 0.00 | 0.00 | 0.00 | 47 | 996.1 |
| 20260906014618 | 74 | 68 | 16.0 | 18.0 | 0.00 | 0.00 | 0.00 | 47 | 995.9 |
| 20260906014118 | 74 | 0 | 14.0 | 16.0 | 0.00 | 0.00 | 0.00 | 46 | 995.9 |
| 20260906013641 | 74 | 0 | 12.0 | 16.0 | 0.00 | 0.00 | 0.00 | 46 | 996.0 |
| 20260906013119 | 74 | 0 | 14.0 | 19.0 | 0.00 | 0.00 | 0.00 | 47 | 995.9 |
| 20260906012618 | 74 | 68 | 12.0 | 17.0 | 0.00 | 0.00 | 0.00 | 46 | 995.8 |
| 20260906012120 | 74 | 0 | 12.0 | 15.0 | 0.00 | 0.00 | 0.00 | 46 | 995.8 |
| 20260906011620 | 74 | 0 | 12.0 | 15.0 | 0.00 | 0.00 | 0.00 | 46 | 995.8 |
| 20260906011119 | 74 | 0 | 11.0 | 14.0 | 0.00 | 0.00 | 0.00 | 46 | 995.7 |
| 20260906010620 | 74 | 0 | 12.0 | 15.0 | 0.00 | 0.00 | 0.00 | 47 | 995.7 |
| 20260906010139 | 74 | 0 | 11.0 | 15.0 | 0.00 | 0.00 | 0.00 | 46 | 995.7 |
| 20260906005641 | 74 | 0 | 14.0 | 15.0 | 0.00 | 0.00 | 0.00 | 45 | 995.8 |
| 20260906005118 | 75 | 0 | 15.0 | 17.0 | 0.00 | 0.00 | 0.00 | 46 | 995.7 |
| 20260906004638 | 74 | 0 | 13.0 | 17.0 | 0.00 | 0.00 | 0.00 | 45 | 995.6 |
| 20260906004120 | 74 | 0 | 13.0 | 15.0 | 0.00 | 0.00 | 0.00 | 45 | 995.6 |
| 20260906003618 | 74 | 0 | 13.0 | 15.0 | 0.00 | 0.00 | 0.00 | 46 | 995.6 |
| 20260906003119 | 74 | 0 | 13.0 | 16.0 | 0.00 | 0.00 | 0.00 | 46 | 995.6 |
| 20260906002638 | 75 | 0 | 13.0 | 16.0 | 0.00 | 0.00 | 0.00 | 46 | 995.6 |
| 20260906002138 | 74 | 0 | 12.0 | 15.0 | 0.00 | 0.00 | 0.00 | 45 | 995.7 |
| 20260906001640 | 74 | 0 | 11.0 | 14.0 | 0.00 | 0.00 | 0.00 | 46 | 995.7 |
| 20260906001120 | 74 | 0 | 15.0 | 18.0 | 0.00 | 0.00 | 0.00 | 45 | 995.8 |
| 20260906000621 | 74 | 0 | 13.0 | 16.0 | 0.00 | 0.00 | 0.00 | 46 | 995.6 |
| 20260906000118 | 74 | 68 | 14.0 | 16.0 | 0.00 | 0.00 | 0.00 | 45 | 995.6 |
| 20260905235622 | 74 | 0 | 15.0 | 17.0 | 0.00 | 0.00 | 0.00 | 46 | 995.6 |
| 20260905235122 | 74 | 0 | 13.0 | 16.0 | 0.00 | 0.00 | 0.00 | 47 | 995.6 |
| 20260905234641 | 74 | 0 | 16.0 | 18.0 | 0.00 | 0.00 | 0.00 | 47 | 995.4 |
| 20260905234121 | 74 | 0 | 13.0 | 17.0 | 0.00 | 0.00 | 0.00 | 46 | 995.3 |
| 20260905233618 | 74 | 0 | 14.0 | 19.0 | 0.00 | 0.00 | 0.00 | 45 | 995.2 |
| 20260905233121 | 74 | 68 | 12.0 | 17.0 | 0.00 | 0.00 | 0.00 | 45 | 995.2 |
| 20260905232620 | 74 | 0 | 14.0 | 21.0 | 0.00 | 0.00 | 0.00 | 47 | 995.2 |
| 20260905232138 | 74 | 0 | 16.0 | 21.0 | 0.00 | 0.00 | 0.00 | 46 | 995.2 |
| 20260905231620 | 74 | 45 | 14.0 | 18.0 | 0.00 | 0.00 | 0.00 | 45 | 995.3 |
| 20260905231120 | 74 | 0 | 16.0 | 20.0 | 0.00 | 0.00 | 0.00 | 45 | 995.2 |
| 20260905230620 | 74 | 0 | 14.0 | 16.0 | 0.00 | 0.00 | 0.00 | 48 | 995.2 |
| 20260905230120 | 74 | 0 | 16.0 | 18.0 | 0.00 | 0.00 | 0.00 | 46 | 995.2 |
| 20260905225621 | 74 | 0 | 13.0 | 18.0 | 0.00 | 0.00 | 0.00 | 47 | 995.4 |
| 20260905225121 | 74 | 0 | 14.0 | 20.0 | 0.00 | 0.00 | 0.00 | 46 | 995.4 |
| 20260905224617 | 74 | 68 | 13.0 | 18.0 | 0.00 | 0.00 | 0.00 | 49 | 995.3 |
| 20260905224119 | 74 | 0 | 14.0 | 18.0 | 0.00 | 0.00 | 0.00 | 48 | 995.3 |
| 20260905223619 | 74 | 0 | 15.0 | 19.0 | 0.00 | 0.00 | 0.00 | 50 | 995.1 |
| 20260905223140 | 74 | 0 | 13.0 | 17.0 | 0.00 | 0.00 | 0.00 | 50 | 995.1 |
| 20260905222621 | 74 | 0 | 16.0 | 20.0 | 0.00 | 0.00 | 0.00 | 49 | 995.1 |
| 20260905222120 | 74 | 0 | 11.0 | 14.0 | 0.00 | 0.00 | 0.00 | 49 | 995.1 |
| 20260905221640 | 74 | 68 | 14.0 | 17.0 | 0.00 | 0.00 | 0.00 | 49 | 995.1 |
| 20260905221117 | 74 | 0 | 15.0 | 18.0 | 0.00 | 0.00 | 0.00 | 49 | 995.1 |
| 20260905220620 | 74 | 0 | 18.0 | 21.0 | 0.00 | 0.00 | 0.00 | 49 | 995.1 |
| 20260905220117 | 74 | 0 | 19.0 | 21.0 | 0.00 | 0.00 | 0.00 | 51 | 995.1 |
| 20260905215618 | 74 | 0 | 12.0 | 15.0 | 0.00 | 0.00 | 0.00 | 52 | 994.9 |
| 20260905215117 | 74 | 0 | 15.0 | 19.0 | 0.00 | 0.00 | 0.00 | 50 | 994.9 |
| 20260905214618 | 74 | 0 | 17.0 | 19.0 | 0.00 | 0.00 | 0.00 | 51 | 994.8 |
| 20260905214118 | 74 | 0 | 18.0 | 22.0 | 0.00 | 0.00 | 0.00 | 52 | 994.7 |
| 20260905213618 | 74 | 0 | 18.0 | 21.0 | 0.00 | 0.00 | 0.00 | 51 | 994.7 |
| 20260905213118 | 74 | 45 | 14.0 | 18.0 | 0.00 | 0.00 | 0.00 | 52 | 994.6 |
| 20260905212617 | 73 | 0 | 17.0 | 18.0 | 0.00 | 0.00 | 0.00 | 50 | 994.7 |
| 20260905212137 | 74 | 0 | 18.0 | 21.0 | 0.00 | 0.00 | 0.00 | 51 | 994.7 |
| 20260905211618 | 74 | 0 | 17.0 | 19.0 | 0.00 | 0.00 | 0.00 | 51 | 994.8 |
| 20260905211119 | 74 | 0 | 17.0 | 20.0 | 0.00 | 0.00 | 0.00 | 52 | 994.8 |
| 20260905210618 | 74 | 0 | 18.0 | 21.0 | 0.00 | 0.00 | 0.00 | 51 | 994.9 |
| 20260905210138 | 74 | 0 | 18.0 | 20.0 | 0.00 | 0.00 | 0.00 | 51 | 994.9 |
| 20260905205617 | 74 | 45 | 15.0 | 18.0 | 0.00 | 0.00 | 0.00 | 50 | 995.0 |
| 20260905205119 | 74 | 68 | 12.0 | 15.0 | 0.00 | 0.00 | 0.00 | 51 | 994.9 |
| 20260905204637 | 74 | 45 | 15.0 | 18.0 | 0.00 | 0.00 | 0.00 | 52 | 994.9 |
| 20260905204117 | 74 | 45 | 15.0 | 17.0 | 0.00 | 0.00 | 0.00 | 51 | 994.9 |
| 20260905203618 | 74 | 45 | 16.0 | 19.0 | 0.00 | 0.00 | 0.00 | 51 | 995.0 |
| 20260905203118 | 74 | 45 | 17.0 | 19.0 | 0.00 | 0.00 | 0.00 | 51 | 995.0 |
| 20260905202617 | 74 | 0 | 17.0 | 19.0 | 0.00 | 0.00 | 0.00 | 51 | 995.1 |
| 20260905202118 | 74 | 0 | 17.0 | 19.0 | 0.00 | 0.00 | 0.00 | 50 | 995.1 |
| 20260905201638 | 74 | 0 | 14.0 | 18.0 | 0.00 | 0.00 | 0.00 | 50 | 995.1 |
| 20260905201117 | 74 | 0 | 18.0 | 21.0 | 0.00 | 0.00 | 0.00 | 51 | 995.1 |
| 20260905200637 | 74 | 0 | 16.0 | 20.0 | 0.00 | 0.00 | 0.00 | 51 | 995.1 |
| 20260905200117 | 74 | 0 | 18.0 | 20.0 | 0.00 | 0.00 | 0.00 | 50 | 995.1 |
| 20260905195617 | 74 | 68 | 17.0 | 20.0 | 0.00 | 0.00 | 0.00 | 50 | 995.1 |
| 20260905195138 | 74 | 45 | 19.0 | 20.0 | 0.00 | 0.00 | 0.00 | 51 | 995.1 |
| 20260905194617 | 74 | 45 | 17.0 | 19.0 | 0.00 | 0.00 | 0.00 | 51 | 995.0 |
| 20260905194137 | 74 | 45 | 15.0 | 19.0 | 0.00 | 0.00 | 0.00 | 51 | 995.0 |
| 20260905193617 | 74 | 45 | 12.0 | 18.0 | 0.00 | 0.00 | 0.00 | 51 | 995.1 |
| 20260905193117 | 74 | 68 | 17.0 | 19.0 | 0.00 | 0.00 | 0.00 | 50 | 995.0 |
| 20260905192658 | 74 | 45 | 16.0 | 19.0 | 0.00 | 0.00 | 0.00 | 50 | 995.1 |
| 20260905192117 | 74 | 45 | 16.0 | 18.0 | 0.00 | 0.00 | 0.00 | 50 | 995.1 |
| 20260905191617 | 74 | 68 | 11.0 | 15.0 | 0.00 | 0.00 | 0.00 | 51 | 995.1 |
| 20260905191118 | 74 | 68 | 11.0 | 14.0 | 0.00 | 0.00 | 0.00 | 51 | 995.2 |
| 20260905190638 | 74 | 68 | 13.0 | 17.0 | 0.00 | 0.00 | 0.00 | 51 | 995.2 |
| 20260905190119 | 74 | 45 | 15.0 | 18.0 | 0.00 | 0.00 | 0.00 | 50 | 995.2 |
| 20260905185620 | 74 | 45 | 11.0 | 16.0 | 0.00 | 0.00 | 0.00 | 51 | 995.3 |
| 20260905185117 | 74 | 68 | 12.0 | 14.0 | 0.00 | 0.00 | 0.00 | 50 | 995.2 |
| 20260905184620 | 74 | 0 | 16.0 | 17.0 | 0.00 | 0.00 | 0.00 | 50 | 995.2 |
| 20260905184117 | 74 | 45 | 14.0 | 19.0 | 0.00 | 0.00 | 0.00 | 50 | 995.2 |
| 20260905183617 | 74 | 45 | 14.0 | 17.0 | 0.00 | 0.00 | 0.00 | 51 | 995.1 |
| 20260905183137 | 74 | 0 | 14.0 | 17.0 | 0.00 | 0.00 | 0.00 | 51 | 995.1 |
| 20260905182640 | 74 | 0 | 14.0 | 18.0 | 0.00 | 0.00 | 0.00 | 51 | 995.1 |
| 20260905182121 | 74 | 0 | 13.0 | 16.0 | 0.00 | 0.00 | 0.00 | 50 | 995.0 |
| 20260905181620 | 74 | 0 | 14.0 | 18.0 | 0.00 | 0.00 | 0.00 | 50 | 995.1 |
| 20260905181120 | 74 | 0 | 12.0 | 16.0 | 0.00 | 0.00 | 0.00 | 50 | 995.1 |
| 20260905180619 | 75 | 0 | 12.0 | 15.0 | 0.00 | 0.00 | 0.00 | 50 | 995.1 |
| 20260905180140 | 75 | 68 | 15.0 | 18.0 | 0.00 | 0.00 | 0.00 | 50 | 995.1 |
| 20260905175620 | 75 | 0 | 16.0 | 19.0 | 0.00 | 0.00 | 0.00 | 50 | 995.0 |
| 20260905175117 | 74 | 0 | 14.0 | 18.0 | 0.00 | 0.00 | 0.00 | 50 | 994.9 |
| 20260905174618 | 74 | 0 | 15.0 | 19.0 | 0.00 | 0.00 | 0.00 | 50 | 995.0 |
| 20260905174120 | 74 | 0 | 12.0 | 15.0 | 0.00 | 0.00 | 0.00 | 50 | 995.1 |
| 20260905173619 | 75 | 0 | 16.0 | 19.0 | 0.00 | 0.00 | 0.00 | 50 | 995.1 |
| 20260905173117 | 75 | 0 | 14.0 | 17.0 | 0.00 | 0.00 | 0.00 | 50 | 995.2 |
| 20260905172617 | 75 | 0 | 12.0 | 14.0 | 0.00 | 0.00 | 0.00 | 49 | 995.2 |